EW5179 Weather Reports


Display with metric or nautical units.
time (UTC)temp
F
wind
direction
speed
MPH
gust
MPH
rain 1hr
in
rain 24hr
in
rain mn
in
humidity
%
barometer
mb
20260905194527 98 342 4.0 9.0 0.00 0.02 0.01 58 1025.1
20260905193023 95 13 4.0 8.0 0.00 0.02 0.01 58 1025.0
20260905191521 98 349 3.0 13.0 0.00 0.02 0.01 62 1025.2
20260905190018 98 340 3.0 8.0 0.00 0.02 0.01 59 1025.2
20260905184515 98 10 8.0 13.0 0.00 0.02 0.01 58 1025.4
20260905183012 94 213 2.0 8.0 0.01 0.02 0.01 65 1025.6
20260905181511 95 256 2.0 8.0 0.01 0.02 0.01 66 1025.9
20260905180100 95 236 0.0 8.0 0.01 0.02 0.01 65 1026.0
20260905174555 95 352 0.0 6.0 0.01 0.02 0.01 66 1026.2
20260905173050 94 108 1.0 4.0 0.00 0.01 0.00 70 1026.4
20260905171547 92 262 2.0 7.0 0.00 0.01 0.00 69 1026.3
20260905170043 91 199 0.0 9.0 0.00 0.01 0.00 71 1026.5
20260905164540 91 219 3.0 10.0 0.00 0.01 0.00 73 1026.7
20260905163037 90 212 5.0 11.0 0.00 0.01 0.00 74 1026.6
20260905161535 89 176 3.0 11.0 0.00 0.01 0.00 76 1026.8
20260905160019 89 231 5.0 10.0 0.00 0.01 0.00 76 1026.9
20260905154513 88 202 3.0 9.0 0.00 0.01 0.00 78 1027.0
20260905153111 87 154 4.0 12.0 0.00 0.01 0.00 80 1027.0
20260905151557 86 130 4.0 11.0 0.00 0.01 0.00 80 1027.0
20260905150050 86 137 5.0 9.0 0.00 0.01 0.00 81 1027.4
20260905144529 85 167 6.0 10.0 0.00 0.01 0.00 82 1027.3
20260905143027 84 185 5.0 9.0 0.00 0.01 0.00 85 1027.2
20260905141510 82 115 3.0 10.0 0.00 0.01 0.00 88 1027.2
20260905140006 83 87 2.0 4.0 0.00 0.01 0.00 87 1027.1
20260905134556 83 109 2.0 4.0 0.00 0.01 0.00 86 1026.9
20260905133051 82 232 2.0 4.0 0.00 0.01 0.00 87 1026.9
20260905131546 80 91 0.0 3.0 0.00 0.01 0.00 91 1026.9
20260905130042 79 57 1.0 3.0 0.00 0.01 0.00 91 1027.0
20260905124542 78 20 0.0 2.0 0.00 0.01 0.00 94 1027.0
20260905123037 77 20 0.0 1.0 0.00 0.01 0.00 95 1026.9
20260905121531 0 0.0 0.0 0.00 0.01 0.00 1026.7
20260905120026 0 0.0 0.0 0.00 0.01 0.00 1026.8
20260905114510 0 0.0 0.0 0.00 0.01 0.00 1026.7
20260905113001 0 0.0 0.0 0.00 0.01 0.00 1026.7
20260905111538 0 0.0 0.0 0.00 0.01 0.00 1026.6
20260905110034 0 0.0 0.0 0.00 0.01 0.00 1026.6
20260905104512 73 20 0.0 2.0 0.00 0.01 0.00 100 1026.4
20260905103018 74 20 0.0 0.0 0.00 0.01 0.00 100 1026.4
20260905101553 74 20 0.0 0.0 0.00 0.01 0.00 100 1026.4
20260905100055 73 20 0.0 0.0 0.00 0.01 0.00 100 1026.4
20260905094535 73 20 0.0 0.0 0.00 0.01 0.00 100 1026.4
20260905093025 74 20 0.0 0.0 0.00 0.01 0.00 100 1026.3
20260905091623 74 20 0.0 0.0 0.00 0.01 0.00 99 1026.2
20260905091502 74 20 0.0 0.0 0.00 0.01 0.00 99 1026.2
20260905090119 74 20 0.0 0.0 0.00 0.01 0.00 100 1026.0
20260905084540 74 20 0.0 0.0 0.00 0.01 0.00 100 1025.8
20260905083037 74 20 0.0 2.0 0.00 0.01 0.00 100 1025.8
20260905081518 74 20 0.0 0.0 0.00 0.01 0.01 100 1025.9
20260905080017 75 19 0.0 0.0 0.00 0.01 0.01 100 1025.8
20260905074601 75 19 0.0 0.0 0.00 0.01 0.01 99 1025.9
20260905074505 75 19 0.0 0.0 0.00 0.01 0.01 99 1025.9
20260905073103 75 19 0.0 0.0 0.00 0.01 0.01 99 1025.9
20260905071549 75 19 0.0 0.0 0.00 0.01 0.01 99 1025.9
20260905070045 75 19 0.0 0.0 0.00 0.01 0.01 99 1026.1
20260905064545 75 19 0.0 0.0 0.00 0.01 0.01 99 1026.2
20260905063044 75 19 0.0 0.0 0.00 0.01 0.01 99 1026.4
20260905061609 76 19 0.0 0.0 0.00 0.01 0.01 99 1026.3
20260905060043 76 19 0.0 0.0 0.00 0.01 0.01 98 1026.3
20260905054543 76 20 0.0 1.0 0.00 0.01 0.01 98 1026.4
20260905053045 77 20 0.0 0.0 0.00 0.01 0.01 97 1026.3
20260905051545 77 20 0.0 0.0 0.00 0.01 0.01 97 1026.3
20260905050041 77 20 0.0 0.0 0.00 0.01 0.01 97 1026.3
20260905044531 77 20 0.0 0.0 0.00 0.01 0.01 97 1026.4
20260905043027 78 20 0.0 0.0 0.00 0.01 0.01 97 1026.6
20260905041505 77 20 0.0 0.0 0.00 0.01 0.01 97 1026.7
20260905040005 78 20 0.0 0.0 0.00 0.01 0.01 96 1026.8
20260905034552 78 20 0.0 0.0 0.00 0.01 0.01 97 1026.6
20260905033039 78 20 0.0 0.0 0.00 0.01 0.01 97 1026.8
20260905031523 78 20 0.0 0.0 0.00 0.01 0.01 97 1026.9
20260905030033 79 20 0.0 0.0 0.00 0.01 0.01 95 1026.7
20260905024512 80 20 0.0 0.0 0.00 0.01 0.01 94 1026.6
20260905023010 80 20 0.0 0.0 0.00 0.01 0.01 93 1026.5
20260905021509 81 20 0.0 0.0 0.00 0.01 0.01 93 1026.5
20260905020010 81 20 0.0 0.0 0.00 0.01 0.01 92 1026.4
20260905014508 81 20 0.0 0.0 0.01 0.01 0.01 92 1026.4
20260905013006 82 20 0.0 1.0 0.01 0.01 0.01 91 1026.2
20260905011506 82 19 0.0 0.0 0.01 0.01 0.01 90 1026.1
20260905010011 83 19 0.0 2.0 0.01 0.01 0.01 87 1026.0
20260905004550 85 19 0.0 3.0 0.00 0.00 0.00 85 1025.7
20260905003047 86 313 0.0 1.0 0.00 0.00 0.00 83 1025.5
20260905001545 87 313 0.0 0.0 0.00 0.01 0.00 79 1025.7
20260905000029 89 313 0.0 0.0 0.00 0.01 0.00 75 1025.7
20260904234516 92 304 0.0 0.0 0.00 0.01 0.00 71 1025.6
20260904233031 93 304 0.0 1.0 0.00 0.01 0.00 69 1025.5
20260904231600 96 304 0.0 0.0 0.00 0.01 0.00 65 1025.6
20260904230050 95 288 1.0 3.0 0.00 0.01 0.00 63 1025.5
20260904224547 96 242 1.0 4.0 0.00 0.01 0.00 61 1025.5
20260904223050 96 207 3.0 6.0 0.00 0.01 0.00 59 1025.5
20260904221536 96 229 3.0 6.0 0.00 0.01 0.00 57 1025.6
20260904220034 97 249 4.0 6.0 0.00 0.01 0.00 59 1025.8
20260904214533 96 221 4.0 8.0 0.00 0.01 0.00 58 1025.9
20260904213033 97 214 3.0 9.0 0.00 0.01 0.00 58 1025.9
20260904211531 97 236 5.0 9.0 0.00 0.01 0.00 56 1025.9
20260904210029 96 200 5.0 10.0 0.00 0.01 0.00 54 1026.1
20260904204508 99 304 1.0 7.0 0.00 0.01 0.00 54 1026.4
20260904203007 97 269 5.0 6.0 0.00 0.01 0.00 53 1026.7
20260904201546 98 7 3.0 7.0 0.00 0.01 0.00 53 1026.8
20260904200045 97 328 3.0 10.0 0.00 0.01 0.00 58 1027.0